31-05-2023, 00:00:09,     33,    0.2,    8.2,   0.00,   0.00, 1024.4,    0.3, -999.0
31-05-2023, 00:00:19,     32,    0.0,    8.2,   0.00,   0.00, 1024.3,    0.6, -999.0
31-05-2023, 00:00:29,     33,    0.0,    8.2,   0.00,   0.00, 1024.3,    0.5, -999.0
31-05-2023, 00:00:39,     33,    0.6,    8.3,   0.00,   0.00, 1024.4,    0.5, -999.0
31-05-2023, 00:00:49,     33,    0.0,    8.4,   0.00,   0.00, 1024.3,    0.6, -999.0
31-05-2023, 00:00:59,     33,    0.0,    8.3,   0.00,   0.00, 1024.3,    0.6, -999.0
31-05-2023, 00:01:09,     33,    0.0,    8.2,   0.00,   0.00, 1024.3,    0.4, -999.0
31-05-2023, 00:01:19,     33,    0.0,    8.2,   0.00,   0.00, 1024.3,    0.6, -999.0
31-05-2023, 00:01:29,     33,    0.0,    8.4,   0.00,   0.00, 1024.3,    0.4, -999.0
31-05-2023, 00:01:39,     33,    0.0,    8.4,   0.00,   0.00, 1024.3,    0.6, -999.0
31-05-2023, 00:01:49,     33,    0.7,    8.4,   0.00,   0.00, 1024.4,    0.4, -999.0
31-05-2023, 00:01:59,     33,    0.2,    8.3,   0.00,   0.00, 1024.4,    0.6, -999.0
31-05-2023, 00:02:09,     34,    0.8,    8.3,   0.00,   0.00, 1024.4,    0.6, -999.0
31-05-2023, 00:02:19,     30,    1.4,    8.3,   0.00,   0.00, 1024.4,    0.6, -999.0
31-05-2023, 00:02:29,     28,    0.2,    8.3,   0.00,   0.00, 1024.4,    0.4, -999.0
31-05-2023, 00:02:39,     28,    0.3,    8.3,   0.00,   0.00, 1024.4,    0.7, -999.0
31-05-2023, 00:02:49,     29,    0.3,    8.3,   0.00,   0.00, 1024.4,    0.5, -999.0
31-05-2023, 00:02:59,     32,    1.1,    8.3,   0.00,   0.00, 1024.4,    0.6, -999.0
31-05-2023, 00:03:09,     58,    1.1,    8.3,   0.00,   0.00, 1024.4,    0.6, -999.0
31-05-2023, 00:03:19,     58,    0.5,    8.4,   0.00,   0.00, 1024.4,    0.7, -999.0
31-05-2023, 00:03:29,     58,    0.5,    8.4,   0.00,   0.00, 1024.4,    0.7, -999.0
31-05-2023, 00:03:39,     69,    0.4,    8.3,   0.00,   0.00, 1024.3,    0.8, -999.0
31-05-2023, 00:03:49,     39,    1.4,    8.4,   0.00,   0.00, 1024.4,    0.6, -999.0
31-05-2023, 00:03:59,     39,    0.3,    8.4,   0.00,   0.00, 1024.4,    0.3, -999.0
31-05-2023, 00:04:09,     39,    0.0,    8.3,   0.00,   0.00, 1024.2,    0.6, -999.0
31-05-2023, 00:04:19,     39,    0.2,    8.3,   0.00,   0.00, 1024.3,    0.8, -999.0
31-05-2023, 00:04:29,     39,    0.0,    8.4,   0.00,   0.00, 1024.2,    0.4, -999.0
31-05-2023, 00:04:39,     39,    0.4,    8.5,   0.00,   0.00, 1024.3,    0.5, -999.0
31-05-2023, 00:04:49,     25,    1.2,    8.5,   0.00,   0.00, 1024.4,    0.5, -999.0
31-05-2023, 00:04:59,     23,    0.6,    8.5,   0.00,   0.00, 1024.3,    0.7, -999.0
31-05-2023, 00:05:09,     28,    0.7,    8.4,   0.00,   0.00, 1024.4,    0.6, -999.0
31-05-2023, 00:05:19,     28,    0.0,    8.3,   0.00,   0.00, 1024.3,    0.7, -999.0
31-05-2023, 00:05:28,     28,    0.0,    8.3,   0.00,   0.00, 1024.2,    0.4, -999.0
31-05-2023, 00:05:39,     28,    0.0,    8.2,   0.00,   0.00, 1024.2,    0.5, -999.0
31-05-2023, 00:05:49,     39,    0.0,    8.3,   0.00,   0.00, 1024.3,    0.6, -999.0
31-05-2023, 00:05:58,     35,    0.2,    8.4,   0.00,   0.00, 1024.4,    0.3, -999.0
31-05-2023, 00:06:09,     34,    0.2,    8.3,   0.00,   0.00, 1024.4,    0.7, -999.0
31-05-2023, 00:06:19,     35,    0.1,    8.3,   0.00,   0.00, 1024.3,    0.4, -999.0
31-05-2023, 00:06:29,     35,    0.4,    8.4,   0.00,   0.00, 1024.4,    0.5, -999.0
31-05-2023, 00:06:38,      0,    1.2,    8.4,   0.00,   0.00, 1024.4,    0.6, -999.0
31-05-2023, 00:06:49,     24,    1.0,    8.3,   0.00,   0.00, 1024.4,    0.6, -999.0
31-05-2023, 00:06:59,     26,    0.2,    8.3,   0.00,   0.00, 1024.4,    0.5, -999.0
31-05-2023, 00:07:08,     24,    0.0,    8.3,   0.00,   0.00, 1024.3,    0.5, -999.0
31-05-2023, 00:07:18,     24,    0.0,    8.3,   0.00,   0.00, 1024.3,    0.5, -999.0
31-05-2023, 00:07:29,     24,    0.0,    8.3,   0.00,   0.00, 1024.3,    0.5, -999.0
31-05-2023, 00:07:38,     24,    0.1,    8.3,   0.00,   0.00, 1024.4,    0.7, -999.0
31-05-2023, 00:07:48,     25,    0.6,    8.3,   0.00,   0.00, 1024.4,    0.4, -999.0
31-05-2023, 00:07:58,     24,    0.1,    8.3,   0.00,   0.00, 1024.3,    0.7, -999.0
31-05-2023, 00:08:09,     24,    0.0,    8.3,   0.00,   0.00, 1024.2,    0.5, -999.0
31-05-2023, 00:08:18,     20,    0.8,    8.4,   0.00,   0.00, 1024.4,    0.4, -999.0
31-05-2023, 00:08:28,     33,    1.2,    8.4,   0.00,   0.00, 1024.3,    0.5, -999.0
31-05-2023, 00:08:38,     32,    0.3,    8.3,   0.00,   0.00, 1024.3,    0.5, -999.0
31-05-2023, 00:08:48,     32,    0.0,    8.2,   0.00,   0.00, 1024.2,    0.6, -999.0
31-05-2023, 00:08:58,     33,    0.2,    8.3,   0.00,   0.00, 1024.3,    0.5, -999.0
31-05-2023, 00:09:08,     33,    0.9,    8.3,   0.00,   0.00, 1024.3,    0.6, -999.0
31-05-2023, 00:09:19,     19,    3.0,    8.4,   0.00,   0.00, 1024.4,    0.6, -999.0
31-05-2023, 00:09:28,     34,    2.2,    8.2,   0.00,   0.00, 1024.3,    0.6, -999.0
31-05-2023, 00:09:38,     54,    3.0,    8.2,   0.00,   0.00, 1024.3,    0.8, -999.0
31-05-2023, 00:09:48,     41,    0.8,    8.3,   0.00,   0.00, 1024.4,    0.5, -999.0
31-05-2023, 00:09:58,     41,    2.2,    8.3,   0.00,   0.00, 1024.3,    0.7, -999.0
31-05-2023, 00:10:08,     41,    0.5,    8.3,   0.00,   0.00, 1024.4,    0.5, -999.0
31-05-2023, 00:10:18,      8,    0.7,    8.3,   0.00,   0.00, 1024.4,    0.6, -999.0
31-05-2023, 00:10:28,      0,    1.1,    8.3,   0.00,   0.00, 1024.4,    0.7, -999.0
31-05-2023, 00:10:38,      0,    0.8,    8.3,   0.00,   0.00, 1024.4,    0.6, -999.0
31-05-2023, 00:10:48,     39,    0.7,    8.2,   0.00,   0.00, 1024.4,    0.4, -999.0
31-05-2023, 00:10:58,     56,    0.5,    8.2,   0.00,   0.00, 1024.4,    0.3, -999.0
31-05-2023, 00:11:08,     56,    0.2,    8.3,   0.00,   0.00, 1024.3,    0.5, -999.0
31-05-2023, 00:11:18,     56,    0.2,    8.2,   0.00,   0.00, 1024.3,    0.4, -999.0
31-05-2023, 00:11:28,     56,    0.3,    8.3,   0.00,   0.00, 1024.4,    0.4, -999.0
31-05-2023, 00:11:38,     56,    0.0,    8.2,   0.00,   0.00, 1024.3,    0.6, -999.0
31-05-2023, 00:11:48,     56,    0.0,    8.3,   0.00,   0.00, 1024.3,    0.6, -999.0
31-05-2023, 00:11:58,     56,    0.0,    8.3,   0.00,   0.00, 1024.3,    0.5, -999.0
31-05-2023, 00:12:08,     56,    0.0,    8.3,   0.00,   0.00, 1024.3,    0.5, -999.0
31-05-2023, 00:12:18,     56,    0.0,    8.3,   0.00,   0.00, 1024.3,    0.6, -999.0
31-05-2023, 00:12:28,     33,    1.7,    8.4,   0.00,   0.00, 1024.4,    0.4, -999.0
31-05-2023, 00:12:38,     60,    0.8,    8.4,   0.00,   0.00, 1024.4,    0.8, -999.0
31-05-2023, 00:12:48,     65,    0.3,    8.4,   0.00,   0.00, 1024.3,    0.5, -999.0
31-05-2023, 00:12:58,     65,    0.0,    8.3,   0.00,   0.00, 1024.3,    0.2, -999.0
31-05-2023, 00:13:08,     64,    0.0,    8.3,   0.00,   0.00, 1024.3,    0.5, -999.0
31-05-2023, 00:13:18,     65,    0.0,    8.3,   0.00,   0.00, 1024.3,    0.6, -999.0
31-05-2023, 00:13:28,     65,    0.0,    8.4,   0.00,   0.00, 1024.3,    0.6, -999.0
31-05-2023, 00:13:38,     65,    0.0,    8.4,   0.00,   0.00, 1024.3,    0.6, -999.0
31-05-2023, 00:13:48,     65,    0.0,    8.4,   0.00,   0.00, 1024.3,    0.8, -999.0
31-05-2023, 00:13:58,     65,    0.0,    8.4,   0.00,   0.00, 1024.3,    0.4, -999.0
31-05-2023, 00:14:08,     65,    0.0,    8.4,   0.00,   0.00, 1024.3,    0.4, -999.0
31-05-2023, 00:14:18,     65,    0.2,    8.4,   0.00,   0.00, 1024.3,    0.8, -999.0
31-05-2023, 00:14:28,     42,    2.3,    8.6,   0.00,   0.00, 1024.4,    0.9, -999.0
31-05-2023, 00:14:38,     34,    1.5,    8.6,   0.00,   0.00, 1024.4,    0.8, -999.0
31-05-2023, 00:14:48,     33,    0.4,    8.5,   0.00,   0.00, 1024.4,    0.4, -999.0
31-05-2023, 00:14:57,     33,    0.5,    8.5,   0.00,   0.00, 1024.5,    0.6, -999.0
31-05-2023, 00:15:08,      8,    0.7,    8.4,   0.00,   0.00, 1024.4,    0.7, -999.0
31-05-2023, 00:15:18,     57,    2.3,    8.4,   0.00,   0.00, 1024.4,    0.7, -999.0
31-05-2023, 00:15:27,      0,    2.2,    8.5,   0.00,   0.00, 1024.5,    0.8, -999.0
31-05-2023, 00:15:38,    339,    1.0,    8.4,   0.00,   0.00, 1024.4,    0.8, -999.0
31-05-2023, 00:15:48,    339,    0.0,    8.2,   0.00,   0.00, 1024.3,    0.6, -999.0
31-05-2023, 00:15:58,     13,    0.0,    8.3,   0.00,   0.00, 1024.3,    0.6, -999.0
31-05-2023, 00:16:07,     49,    2.3,    8.4,   0.00,   0.00, 1024.4,    0.5, -999.0
31-05-2023, 00:16:18,     34,    1.4,    8.4,   0.00,   0.00, 1024.4,    0.4, -999.0
31-05-2023, 00:16:28,      0,    2.0,    8.4,   0.00,   0.00, 1024.4,   42.2, -999.0
31-05-2023, 00:16:37,     57,    1.2,    8.4,   0.00,   0.00, 1024.4,   99.0, -999.0
31-05-2023, 00:16:47,     50,    2.3,    8.4,   0.00,   0.00, 1024.4,   99.0, -999.0
31-05-2023, 00:16:58,     39,    2.2,    8.4,   0.00,   0.00, 1024.5,   99.0, -999.0
31-05-2023, 00:17:07,     26,    1.6,    8.4,   0.00,   0.00, 1024.5,   99.0, -999.0
31-05-2023, 00:17:17,     26,    0.1,    8.3,   0.00,   0.00, 1024.4,   98.8, -999.0
31-05-2023, 00:17:27,     28,    0.2,    8.3,   0.00,   0.00, 1024.4,   98.9, -999.0
31-05-2023, 00:17:37,     17,    2.4,    8.5,   0.00,   0.00, 1024.4,   99.0, -999.0
31-05-2023, 00:17:47,     33,    1.1,    8.5,   0.00,   0.00, 1024.4,   99.1, -999.0
31-05-2023, 00:17:57,     45,    1.2,    8.4,   0.00,   0.00, 1024.4,   99.0, -999.0
31-05-2023, 00:18:08,     45,    0.1,    8.4,   0.00,   0.00, 1024.3,   98.8, -999.0
31-05-2023, 00:18:17,     45,    0.0,    8.4,   0.00,   0.00, 1024.4,   98.8, -999.0
31-05-2023, 00:18:27,     45,    0.0,    8.4,   0.00,   0.00, 1024.3,   98.7, -999.0
31-05-2023, 00:18:37,     40,    2.6,    8.5,   0.00,   0.00, 1024.4,   99.0, -999.0
31-05-2023, 00:18:47,     13,    3.1,    8.5,   0.00,   0.00, 1024.4,   99.0, -999.0
31-05-2023, 00:18:57,     27,    0.5,    8.3,   0.00,   0.00, 1024.4,   99.0, -999.0
31-05-2023, 00:19:07,     35,    1.1,    8.4,   0.00,   0.00, 1024.4,   99.0, -999.0
31-05-2023, 00:19:17,     34,    0.9,    8.4,   0.00,   0.00, 1024.4,   99.0, -999.0
31-05-2023, 00:19:27,     39,    0.6,    8.4,   0.00,   0.00, 1024.4,   99.0, -999.0
31-05-2023, 00:19:37,     39,    0.5,    8.4,   0.00,   0.00, 1024.4,   98.9, -999.0
31-05-2023, 00:19:47,     39,    0.0,    8.3,   0.00,   0.00, 1024.3,   98.7, -999.0
31-05-2023, 00:19:57,     39,    0.1,    8.4,   0.00,   0.00, 1024.4,   98.9, -999.0
31-05-2023, 00:20:07,     38,    0.2,    8.4,   0.00,   0.00, 1024.3,   98.8, -999.0
31-05-2023, 00:20:17,      0,    0.5,    8.5,   0.00,   0.00, 1024.4,   99.0, -999.0
31-05-2023, 00:20:27,      0,    0.1,    8.5,   0.00,   0.00, 1024.3,   98.8, -999.0
31-05-2023, 00:20:37,      0,    0.0,    8.5,   0.00,   0.00, 1024.3,   98.6, -999.0
31-05-2023, 00:20:47,      0,    0.0,    8.5,   0.00,   0.00, 1024.3,   98.6, -999.0
31-05-2023, 00:20:57,      0,    0.0,    8.5,   0.00,   0.00, 1024.3,   98.6, -999.0
31-05-2023, 00:21:07,      0,    0.3,    8.5,   0.00,   0.00, 1024.3,   98.8, -999.0
31-05-2023, 00:21:17,      0,    0.1,    8.5,   0.00,   0.00, 1024.3,   98.9, -999.0
31-05-2023, 00:21:27,      0,    0.1,    8.5,   0.00,   0.00, 1024.3,   98.7, -999.0
31-05-2023, 00:21:37,      0,    0.0,    8.5,   0.00,   0.00, 1024.3,   98.7, -999.0
31-05-2023, 00:21:47,      0,    0.0,    8.5,   0.00,   0.00, 1024.3,   98.7, -999.0
31-05-2023, 00:21:57,      0,    0.0,    8.5,   0.00,   0.00, 1024.2,   98.7, -999.0
31-05-2023, 00:22:07,      0,    0.0,    8.5,   0.00,   0.00, 1024.3,   98.7, -999.0
31-05-2023, 00:22:17,      0,    0.4,    8.6,   0.00,   0.00, 1024.4,   98.9, -999.0
31-05-2023, 00:22:27,      0,    0.5,    8.6,   0.00,   0.00, 1024.4,   99.1, -999.0
31-05-2023, 00:22:37,      0,    0.1,    8.5,   0.00,   0.00, 1024.4,   98.9, -999.0
31-05-2023, 00:22:47,     29,    0.7,    8.4,   0.00,   0.00, 1024.4,   98.9, -999.0
31-05-2023, 00:22:57,     29,    1.0,    8.4,   0.00,   0.00, 1024.4,   99.0, -999.0
31-05-2023, 00:23:07,     29,    0.6,    8.4,   0.00,   0.00, 1024.4,   98.9, -999.0
31-05-2023, 00:23:17,     29,    0.0,    8.3,   0.00,   0.00, 1024.3,   98.8, -999.0
31-05-2023, 00:23:27,     29,    0.2,    8.4,   0.00,   0.00, 1024.4,   98.9, -999.0
31-05-2023, 00:23:37,     29,    0.0,    8.4,   0.00,   0.00, 1024.3,   98.9, -999.0
31-05-2023, 00:23:46,     29,    0.1,    8.4,   0.00,   0.00, 1024.4,   98.9, -999.0
31-05-2023, 00:23:57,     29,    0.1,    8.4,   0.00,   0.00, 1024.4,   98.7, -999.0
31-05-2023, 00:24:07,     29,    0.1,    8.4,   0.00,   0.00, 1024.3,   98.8, -999.0
31-05-2023, 00:24:17,     68,    0.2,    8.3,   0.00,   0.00, 1024.4,   98.8, -999.0
31-05-2023, 00:24:26,      1,    1.5,    8.4,   0.00,   0.00, 1024.4,   99.0, -999.0
31-05-2023, 00:24:37,      1,    0.0,    8.3,   0.00,   0.00, 1024.3,   98.7, -999.0
31-05-2023, 00:24:47,      1,    0.0,    8.2,   0.00,   0.00, 1024.3,   98.6, -999.0
31-05-2023, 00:24:56,      1,    0.0,    8.3,   0.00,   0.00, 1024.3,   98.6, -999.0
31-05-2023, 00:25:06,      1,    0.0,    8.3,   0.00,   0.00, 1024.3,   98.6, -999.0
31-05-2023, 00:25:17,     15,    0.4,    8.4,   0.00,   0.00, 1024.4,   99.0, -999.0
31-05-2023, 00:25:27,      7,    1.6,    8.5,   0.00,   0.00, 1024.4,   99.0, -999.0
31-05-2023, 00:25:36,      7,    0.4,    8.4,   0.00,   0.00, 1024.4,   98.9, -999.0
31-05-2023, 00:25:47,      6,    0.0,    8.3,   0.00,   0.00, 1024.3,   98.6, -999.0
31-05-2023, 00:25:57,      7,    0.0,    8.3,   0.00,   0.00, 1024.3,   98.7, -999.0
31-05-2023, 00:26:06,      6,    0.0,    8.1,   0.00,   0.00, 1024.3,   98.6, -999.0
31-05-2023, 00:26:16,      7,    0.1,    8.3,   0.00,   0.00, 1024.3,   98.8, -999.0
31-05-2023, 00:26:27,      7,    0.0,    8.3,   0.00,   0.00, 1024.3,   98.8, -999.0
31-05-2023, 00:26:36,      6,    0.0,    8.4,   0.00,   0.00, 1024.3,   98.7, -999.0
31-05-2023, 00:26:46,      7,    0.0,    8.3,   0.00,   0.00, 1024.3,   98.7, -999.0
31-05-2023, 00:26:56,     33,    0.3,    8.3,   0.00,   0.00, 1024.4,   98.8, -999.0
31-05-2023, 00:27:06,     33,    0.6,    8.4,   0.00,   0.00, 1024.4,   99.0, -999.0
31-05-2023, 00:27:16,     41,    1.7,    8.4,   0.00,   0.00, 1024.4,   99.1, -999.0
31-05-2023, 00:27:26,     50,    1.7,    8.4,   0.00,   0.00, 1024.4,   99.0, -999.0
31-05-2023, 00:27:36,     50,    0.5,    8.4,   0.00,   0.00, 1024.4,   99.0, -999.0
31-05-2023, 00:27:46,     50,    0.3,    8.3,   0.00,   0.00, 1024.4,   98.9, -999.0
31-05-2023, 00:27:56,     50,    0.7,    8.4,   0.00,   0.00, 1024.4,   99.1, -999.0
31-05-2023, 00:28:06,     34,    1.2,    8.4,   0.00,   0.00, 1024.5,   99.0, -999.0
31-05-2023, 00:28:16,     34,    0.0,    8.3,   0.00,   0.00, 1024.3,   98.7, -999.0
31-05-2023, 00:28:26,     35,    0.0,    8.3,   0.00,   0.00, 1024.3,   98.6, -999.0
31-05-2023, 00:28:36,     35,    0.0,    8.3,   0.00,   0.00, 1024.3,   98.6, -999.0
31-05-2023, 00:28:46,     34,    0.0,    8.4,   0.00,   0.00, 1024.3,   98.8, -999.0
31-05-2023, 00:28:56,     34,    0.0,    8.3,   0.00,   0.00, 1024.3,   98.6, -999.0
31-05-2023, 00:29:06,     34,    0.0,    8.3,   0.00,   0.00, 1024.3,   98.6, -999.0
31-05-2023, 00:29:16,     34,    0.0,    8.4,   0.00,   0.00, 1024.3,   98.6, -999.0
31-05-2023, 00:29:26,     34,    0.0,    8.4,   0.00,   0.00, 1024.3,   98.7, -999.0
31-05-2023, 00:29:36,     34,    0.0,    8.4,   0.00,   0.00, 1024.3,   98.6, -999.0
31-05-2023, 00:29:46,     34,    0.0,    8.4,   0.00,   0.00, 1024.2,   98.6, -999.0
31-05-2023, 00:29:56,     34,    0.0,    8.5,   0.00,   0.00, 1024.3,   98.7, -999.0
31-05-2023, 00:30:06,     34,    0.0,    8.5,   0.00,   0.00, 1024.3,   98.7, -999.0
31-05-2023, 00:30:16,     34,    0.0,    8.5,   0.00,   0.00, 1024.2,   98.6, -999.0
31-05-2023, 00:30:26,     34,    0.0,    8.5,   0.00,   0.00, 1024.2,   98.7, -999.0
31-05-2023, 00:30:36,     34,    0.0,    8.5,   0.00,   0.00, 1024.2,   98.6, -999.0
31-05-2023, 00:30:46,     34,    0.0,    8.5,   0.00,   0.00, 1024.2,   98.6, -999.0
31-05-2023, 00:30:56,     34,    0.0,    8.5,   0.00,   0.00, 1024.2,   98.6, -999.0
31-05-2023, 00:31:06,     34,    0.2,    8.5,   0.00,   0.00, 1024.3,   98.8, -999.0
31-05-2023, 00:31:16,     34,    0.0,    8.4,   0.00,   0.00, 1024.2,   98.6, -999.0
31-05-2023, 00:31:26,     34,    0.0,    8.4,   0.00,   0.00, 1024.2,   98.6, -999.0
31-05-2023, 00:31:36,    358,    0.8,    8.5,   0.00,   0.00, 1024.3,   98.8, -999.0
31-05-2023, 00:31:46,      0,    1.3,    8.4,   0.00,   0.00, 1024.3,   98.9, -999.0
31-05-2023, 00:31:56,      0,    0.0,    8.5,   0.00,   0.00, 1024.2,   98.6, -999.0
31-05-2023, 00:32:06,     37,    0.1,    8.5,   0.00,   0.00, 1024.3,   98.7, -999.0
31-05-2023, 00:32:16,     33,    0.6,    8.5,   0.00,   0.00, 1024.3,   98.7, -999.0
31-05-2023, 00:32:26,     10,    2.0,    8.6,   0.00,   0.00, 1024.3,   99.0, -999.0
31-05-2023, 00:32:36,     11,    2.1,    8.5,   0.00,   0.00, 1024.3,   99.0, -999.0
31-05-2023, 00:32:45,     45,    2.6,    8.5,   0.00,   0.00, 1024.3,   99.0, -999.0
31-05-2023, 00:32:56,     61,    0.8,    8.5,   0.00,   0.00, 1024.3,   99.1, -999.0
31-05-2023, 00:33:08,     72,    1.2,    8.4,   0.00,   0.00, 1024.3,   99.0, -999.0
31-05-2023, 00:33:15,     38,    0.2,    8.4,   0.00,   0.00, 1024.2,   98.7, -999.0
31-05-2023, 00:33:26,     47,    2.2,    8.5,   0.00,   0.00, 1024.3,   99.0, -999.0
31-05-2023, 00:33:36,     47,    0.6,    8.5,   0.00,   0.00, 1024.3,   99.0, -999.0
31-05-2023, 00:33:46,     49,    0.8,    8.5,   0.00,   0.00, 1024.3,   99.0, -999.0
31-05-2023, 00:33:55,     49,    0.5,    8.5,   0.00,   0.00, 1024.4,   99.0, -999.0
31-05-2023, 00:34:06,     49,    0.1,    8.3,   0.00,   0.00, 1024.3,   98.8, -999.0
31-05-2023, 00:34:16,     48,    0.4,    8.4,   0.00,   0.00, 1024.3,   98.8, -999.0
31-05-2023, 00:34:25,     47,    0.2,    8.4,   0.00,   0.00, 1024.3,   98.8, -999.0
31-05-2023, 00:34:35,     46,    0.3,    8.5,   0.00,   0.00, 1024.3,   99.0, -999.0
31-05-2023, 00:34:46,     46,    0.2,    8.5,   0.00,   0.00, 1024.3,   98.9, -999.0
31-05-2023, 00:34:55,     46,    0.0,    8.4,   0.00,   0.00, 1024.2,   98.5, -999.0
31-05-2023, 00:35:05,     46,    0.0,    8.4,   0.00,   0.00, 1024.2,   98.6, -999.0
31-05-2023, 00:35:15,     46,    0.0,    8.4,   0.00,   0.00, 1024.2,   98.7, -999.0
31-05-2023, 00:35:26,     46,    0.0,    8.5,   0.00,   0.00, 1024.3,   98.8, -999.0
31-05-2023, 00:35:35,     46,    0.0,    8.5,   0.00,   0.00, 1024.3,   98.7, -999.0
31-05-2023, 00:35:45,     46,    0.0,    8.5,   0.00,   0.00, 1024.2,   98.6, -999.0
31-05-2023, 00:35:55,     46,    0.0,    8.6,   0.00,   0.00, 1024.2,   98.6, -999.0
31-05-2023, 00:36:05,     46,    0.0,    8.5,   0.00,   0.00, 1024.1,   98.6, -999.0
31-05-2023, 00:36:15,     46,    0.0,    8.5,   0.00,   0.00, 1024.2,   98.6, -999.0
31-05-2023, 00:36:25,     46,    0.0,    8.6,   0.00,   0.00, 1024.1,   98.7, -999.0
31-05-2023, 00:36:35,     46,    0.0,    8.6,   0.00,   0.00, 1024.2,   98.7, -999.0
31-05-2023, 00:36:45,     45,    0.0,    8.6,   0.00,   0.00, 1024.2,   98.6, -999.0
31-05-2023, 00:36:55,     46,    0.0,    8.6,   0.00,   0.00, 1024.1,   98.6, -999.0
31-05-2023, 00:37:05,     46,    0.0,    8.6,   0.00,   0.00, 1024.1,   98.7, -999.0
31-05-2023, 00:37:15,     46,    0.0,    8.6,   0.00,   0.00, 1024.1,   98.6, -999.0
31-05-2023, 00:37:25,     46,    0.0,    8.6,   0.00,   0.00, 1024.1,   98.6, -999.0
31-05-2023, 00:37:35,     46,    0.0,    8.6,   0.00,   0.00, 1024.2,   98.7, -999.0
31-05-2023, 00:37:45,     46,    0.0,    8.6,   0.00,   0.00, 1024.1,   98.7, -999.0
31-05-2023, 00:37:55,     46,    0.0,    8.6,   0.00,   0.00, 1024.1,   98.6, -999.0
31-05-2023, 00:38:05,     46,    0.0,    8.6,   0.00,   0.00, 1024.2,   98.7, -999.0
31-05-2023, 00:38:15,     45,    0.2,    8.7,   0.00,   0.00, 1024.2,   98.9, -999.0
31-05-2023, 00:38:25,     46,    0.3,    8.6,   0.00,   0.00, 1024.2,   98.9, -999.0
31-05-2023, 00:38:35,     46,    0.1,    8.6,   0.00,   0.00, 1024.1,   98.7, -999.0
31-05-2023, 00:38:45,     46,    0.1,    8.6,   0.00,   0.00, 1024.1,   98.7, -999.0
31-05-2023, 00:38:55,     26,    1.0,    8.7,   0.00,   0.00, 1024.3,   99.0, -999.0
31-05-2023, 00:39:05,     21,    1.5,    8.6,   0.00,   0.00, 1024.3,   99.0, -999.0
31-05-2023, 00:39:15,     35,    0.5,    8.6,   0.00,   0.00, 1024.3,   99.0, -999.0
31-05-2023, 00:39:25,     49,    1.2,    8.5,   0.00,   0.00, 1024.2,   99.0, -999.0
31-05-2023, 00:39:35,     49,    1.1,    8.5,   0.00,   0.00, 1024.3,   99.0, -999.0
31-05-2023, 00:39:45,     49,    0.5,    8.4,   0.00,   0.00, 1024.2,   99.0, -999.0
31-05-2023, 00:39:55,     49,    0.2,    8.4,   0.00,   0.00, 1024.2,   98.9, -999.0
31-05-2023, 00:40:05,     49,    0.0,    8.4,   0.00,   0.00, 1024.1,   98.7, -999.0
31-05-2023, 00:40:15,     48,    1.4,    8.4,   0.00,   0.00, 1024.2,   99.0, -999.0
31-05-2023, 00:40:25,     49,    0.8,    8.5,   0.00,   0.00, 1024.2,   98.9, -999.0
31-05-2023, 00:40:35,     50,    0.8,    8.6,   0.00,   0.00, 1024.2,   99.0, -999.0
31-05-2023, 00:40:45,     22,    1.1,    8.6,   0.00,   0.00, 1024.2,   99.0, -999.0
31-05-2023, 00:40:55,     22,    0.2,    8.5,   0.00,   0.00, 1024.2,   98.9, -999.0
31-05-2023, 00:41:05,     22,    0.1,    8.5,   0.00,   0.00, 1024.2,   98.8, -999.0
31-05-2023, 00:41:15,     22,    0.0,    8.4,   0.00,   0.00, 1024.1,   98.6, -999.0
31-05-2023, 00:41:25,     22,    0.0,    8.4,   0.00,   0.00, 1024.1,   98.7, -999.0
31-05-2023, 00:41:35,     22,    0.0,    8.5,   0.00,   0.00, 1024.1,   98.6, -999.0
31-05-2023, 00:41:45,     23,    0.0,    8.5,   0.00,   0.00, 1024.1,   98.7, -999.0
31-05-2023, 00:41:55,     26,    0.2,    8.6,   0.00,   0.00, 1024.2,   99.0, -999.0
31-05-2023, 00:42:05,     22,    0.3,    8.6,   0.00,   0.00, 1024.2,   98.9, -999.0
31-05-2023, 00:42:15,     22,    0.9,    8.6,   0.00,   0.00, 1024.3,   99.0, -999.0
31-05-2023, 00:42:25,     28,    1.4,    8.6,   0.00,   0.00, 1024.2,   99.0, -999.0
31-05-2023, 00:42:35,     34,    1.8,    8.5,   0.00,   0.00, 1024.2,   99.0, -999.0
31-05-2023, 00:42:45,     35,    0.3,    8.4,   0.00,   0.00, 1024.2,   98.8, -999.0
31-05-2023, 00:42:54,     35,    0.0,    8.4,   0.00,   0.00, 1024.1,   98.7, -999.0
31-05-2023, 00:43:05,     35,    0.0,    8.4,   0.00,   0.00, 1024.1,   98.6, -999.0
31-05-2023, 00:43:15,     35,    0.0,    8.4,   0.00,   0.00, 1024.1,   98.7, -999.0
31-05-2023, 00:43:24,     34,    0.1,    8.4,   0.00,   0.00, 1024.2,   98.9, -999.0
31-05-2023, 00:43:34,     35,    0.9,    8.5,   0.00,   0.00, 1024.2,   99.0, -999.0
31-05-2023, 00:43:45,     35,    0.4,    8.5,   0.00,   0.00, 1024.2,   98.9, -999.0
31-05-2023, 00:43:55,     34,    0.0,    8.4,   0.00,   0.00, 1024.1,   98.7, -999.0
31-05-2023, 00:44:04,     35,    0.0,    8.4,   0.00,   0.00, 1024.1,   98.6, -999.0
31-05-2023, 00:44:14,     35,    0.0,    8.4,   0.00,   0.00, 1024.1,   98.6, -999.0
31-05-2023, 00:44:25,     35,    0.0,    8.4,   0.00,   0.00, 1024.1,   98.7, -999.0
31-05-2023, 00:44:34,     35,    0.0,    8.5,   0.00,   0.00, 1024.1,   98.6, -999.0
31-05-2023, 00:44:44,     34,    0.0,    8.5,   0.00,   0.00, 1024.1,   98.6, -999.0
31-05-2023, 00:44:54,     35,    0.4,    8.5,   0.00,   0.00, 1024.2,   99.0, -999.0
31-05-2023, 00:45:04,     46,    0.6,    8.5,   0.00,   0.00, 1024.2,   98.8, -999.0
31-05-2023, 00:45:14,     47,    0.9,    8.6,   0.00,   0.00, 1024.2,   99.0, -999.0
31-05-2023, 00:45:24,     49,    1.5,    8.5,   0.00,   0.00, 1024.2,   99.0, -999.0
31-05-2023, 00:45:35,     53,    0.8,    8.4,   0.00,   0.00, 1024.2,   99.0, -999.0
31-05-2023, 00:45:44,     53,    0.0,    8.4,   0.00,   0.00, 1024.1,   98.6, -999.0
31-05-2023, 00:45:54,     53,    0.0,    8.3,   0.00,   0.00, 1024.1,   98.6, -999.0
31-05-2023, 00:46:04,     53,    0.0,    8.4,   0.00,   0.00, 1024.1,   98.6, -999.0
31-05-2023, 00:46:14,     53,    0.0,    8.4,   0.00,   0.00, 1024.1,   98.7, -999.0
31-05-2023, 00:46:24,     53,    0.0,    8.4,   0.00,   0.00, 1024.1,   98.7, -999.0
31-05-2023, 00:46:34,     53,    0.0,    8.4,   0.00,   0.00, 1024.1,   98.7, -999.0
31-05-2023, 00:46:44,     53,    0.0,    8.4,   0.00,   0.00, 1024.1,   98.8, -999.0
31-05-2023, 00:46:54,     53,    0.0,    8.4,   0.00,   0.00, 1024.1,   98.7, -999.0